CW1734 Weather Reports


time (UTC)temp
C
wind
direction
speed
KPH
gust
KPH
rain 1hr
cm
rain 24hr
cm
rain mn
cm
humidity
%
barometer
mb
20260506153404 14 338 8.0 11.3 0.00 0.00 0.00 52 1012.3
20260506152904 14 1 8.0 12.9 0.00 0.00 0.00 51 1012.3
20260506152404 15 341 6.4 9.7 0.00 0.00 0.00 52 1012.3
20260506151903 15 319 4.8 8.0 0.00 0.00 0.00 53 1012.3
20260506151404 15 15 4.8 9.7 0.00 0.00 0.00 52 1012.3
20260506150903 15 5 4.8 8.0 0.00 0.00 0.00 53 1012.3
20260506150404 14 326 6.4 9.7 0.00 0.00 0.00 54 1012.3
20260506145904 14 320 8.0 11.3 0.00 0.00 0.00 51 1012.3
20260506145404 15 323 4.8 8.0 0.00 0.00 0.00 51 1012.3
20260506144904 15 226 3.2 8.0 0.00 0.00 0.00 50 1012.4
20260506144403 15 324 6.4 11.3 0.00 0.00 0.00 52 1012.4
20260506143904 15 246 3.2 8.0 0.00 0.00 0.00 50 1012.4
20260506143404 15 306 6.4 11.3 0.00 0.00 0.00 52 1012.4
20260506142404 15 311 8.0 12.9 0.00 0.00 0.00 50 1012.4
20260506141904 15 328 6.4 11.3 0.00 0.00 0.00 50 1012.4
20260506141404 15 306 8.0 11.3 0.00 0.00 0.00 51 1012.4
20260506140904 15 342 9.7 14.5 0.00 0.00 0.00 49 1012.4
20260506140404 15 300 9.7 19.3 0.00 0.00 0.00 48 1012.4
20260506135903 16 336 12.9 19.3 0.00 0.00 0.00 47 1012.5
20260506135404 16 324 11.3 16.1 0.00 0.00 0.00 48 1012.5
20260506134904 16 294 14.5 19.3 0.00 0.00 0.00 51 1012.5
20260506134404 16 349 9.7 12.9 0.00 0.00 0.00 47 1012.5
20260506133904 16 10 11.3 20.9 0.00 0.00 0.00 50 1012.5
20260506133403 15 314 11.3 19.3 0.00 0.00 0.00 47 1012.5
20260506132404 16 341 9.7 20.9 0.00 0.00 0.00 46 1012.5
20260506131404 16 307 6.4 14.5 0.00 0.00 0.00 47 1012.5
20260506130404 15 13 9.7 20.9 0.00 0.00 0.00 49 1012.5
20260506125903 16 338 8.0 16.1 0.00 0.00 0.00 50 1012.5
20260506125403 15 292 9.7 20.9 0.00 0.00 0.00 54 1012.5
20260506124905 15 283 11.3 16.1 0.00 0.00 0.00 55 1012.5
20260506124404 15 301 12.9 19.3 0.00 0.00 0.00 54 1012.5
20260506123904 15 287 12.9 16.1 0.00 0.00 0.00 54 1012.5
20260506122403 15 317 11.3 16.1 0.00 0.00 0.00 52 1012.5
20260506121903 15 297 12.9 19.3 0.00 0.00 0.00 56 1012.6
20260506121403 15 326 9.7 19.3 0.00 0.00 0.00 54 1012.7
20260506120404 15 282 9.7 20.9 0.00 0.00 0.00 57 1012.7
20260506115403 14 317 9.7 14.5 0.00 0.00 0.00 58 1012.8
20260506114905 15 330 9.7 12.9 0.00 0.00 0.00 56 1012.8
20260506113404 15 284 9.7 24.1 0.00 0.00 0.00 58 1012.8
20260506112904 14 295 11.3 16.1 0.00 0.00 0.00 61 1012.8
20260506112403 14 291 12.9 20.9 0.00 0.00 0.00 58 1012.8
20260506111904 14 314 9.7 14.5 0.00 0.00 0.00 59 1012.8
20260506110904 14 283 8.0 20.9 0.00 0.00 0.00 57 1012.8
20260506110404 14 36 8.0 14.5 0.00 0.00 0.00 57 1012.8
20260506105904 14 40 9.7 16.1 0.00 0.00 0.00 57 1012.8
20260506105404 14 332 11.3 19.3 0.00 0.00 0.00 57 1012.8
20260506104403 14 334 11.3 16.1 0.00 0.00 0.00 56 1012.8
20260506103904 14 331 9.7 16.1 0.00 0.00 0.00 57 1012.8
20260506103403 14 314 11.3 22.5 0.00 0.00 0.00 59 1012.8
20260506102904 14 314 11.3 16.1 0.00 0.00 0.00 60 1012.8
20260506102403 13 333 8.0 16.1 0.00 0.00 0.00 60 1012.8
20260506101404 13 343 8.0 20.9 0.00 0.00 0.00 57 1012.8
20260506100903 13 336 9.7 19.3 0.00 0.00 0.00 60 1012.8
20260506100404 13 24 9.7 14.5 0.00 0.00 0.00 61 1012.8
20260506095403 13 28 11.3 19.3 0.00 0.00 0.00 62 1012.9
20260506094904 13 4 9.7 16.1 0.00 0.00 0.00 63 1012.9
20260506094404 13 10 6.4 14.5 0.00 0.00 0.00 66 1012.9
20260506093904 12 10 8.0 12.9 0.00 0.00 0.00 66 1012.9
20260506093403 12 358 9.7 16.1 0.00 0.00 0.00 65 1012.9
20260506092903 12 13 11.3 16.1 0.00 0.00 0.00 66 1012.9
20260506092404 12 18 9.7 19.3 0.00 0.00 0.00 67 1012.9
20260506091904 12 8 8.0 16.1 0.00 0.00 0.00 69 1012.9
20260506091403 11 324 9.7 12.9 0.00 0.00 0.00 70 1012.9
20260506090404 11 332 8.0 16.1 0.00 0.00 0.00 70 1012.9
20260506085904 11 6 11.3 19.3 0.00 0.00 0.00 72 1012.9
20260506085404 11 13 8.0 19.3 0.00 0.00 0.00 72 1013.0
20260506084903 11 355 8.0 14.5 0.00 0.00 0.00 73 1013.0
20260506084404 11 354 9.7 12.9 0.00 0.00 0.00 74 1012.9
20260506083404 10 35 4.8 11.3 0.00 0.00 0.00 75 1012.9
20260506082904 10 12 4.8 11.3 0.00 0.00 0.00 76 1012.9
20260506082404 10 0 8.0 11.3 0.00 0.00 0.00 76 1012.6
20260506081404 10 21 9.7 14.5 0.00 0.00 0.00 76 1012.6
20260506080904 10 4 9.7 14.5 0.00 0.00 0.00 76 1012.6
20260506080403 10 25 8.0 14.5 0.00 0.00 0.00 76 1012.6
20260506072903 10 29 8.0 12.9 0.00 0.00 0.00 78 1012.6
20260506071404 10 25 9.7 20.9 0.00 0.00 0.00 79 1012.6
20260506070904 10 358 4.8 12.9 0.00 0.00 0.00 79 1012.2
20260506070403 10 15 9.7 14.5 0.00 0.00 0.00 79 1012.2
20260506062404 10 30 6.4 11.3 0.00 0.00 0.00 80 1012.2
20260506061904 10 13 6.4 14.5 0.00 0.00 0.00 80 1012.2
20260506061403 10 18 9.7 14.5 0.00 0.00 0.00 80 1012.1
20260506060904 10 21 9.7 14.5 0.00 0.00 0.00 81 1012.1
20260506060404 10 20 8.0 11.3 0.00 0.00 0.00 81 1012.0
20260506051404 10 27 9.7 14.5 0.00 0.00 0.00 81 1011.8
20260506050403 10 3 8.0 11.3 0.00 0.00 0.00 80 1011.8
20260506044904 10 10 6.4 11.3 0.00 0.00 0.00 80 1011.8
20260506044403 10 16 4.8 12.9 0.00 0.00 0.00 79 1011.8
20260506043404 10 21 6.4 11.3 0.00 0.00 0.00 78 1011.6
20260506042903 10 26 8.0 14.5 0.00 0.00 0.00 78 1011.6
20260506042403 10 31 9.7 16.1 0.00 0.00 0.00 78 1011.6
20260506041904 10 26 9.7 12.9 0.00 0.00 0.00 78 1011.6
20260506041404 10 28 8.0 12.9 0.00 0.00 0.00 78 1011.6
20260506040904 10 28 9.7 16.1 0.00 0.00 0.00 78 1011.6
20260506035404 10 41 6.4 12.9 0.00 0.00 0.00 78 1011.6
20260506034903 10 14 6.4 9.7 0.00 0.00 0.00 77 1011.6
20260506033904 10 358 8.0 14.5 0.00 0.00 0.00 77 1011.4
20260506032904 11 23 8.0 12.9 0.00 0.00 0.00 75 1011.4
20260506032403 11 34 4.8 9.7 0.00 0.00 0.00 75 1011.4
20260506031904 11 48 9.7 19.3 0.00 0.00 0.00 76 1011.5
20260506031403 11 29 6.4 16.1 0.00 0.00 0.00 77 1011.5
20260506030404 11 59 6.4 11.3 0.00 0.00 0.00 77 1011.5
20260506025903 11 31 6.4 11.3 0.00 0.00 0.00 77 1011.6
20260506025403 11 72 8.0 12.9 0.00 0.00 0.00 78 1011.6
20260506024903 11 46 8.0 16.1 0.00 0.00 0.00 78 1011.6
20260506024403 11 27 8.0 12.9 0.00 0.00 0.00 78 1011.6
20260506023903 11 35 8.0 12.9 0.00 0.00 0.00 77 1011.6
20260506023404 11 38 6.4 12.9 0.00 0.00 0.00 77 1011.6
20260506022904 11 62 9.7 14.5 0.00 0.00 0.00 76 1011.6
20260506022404 11 39 8.0 16.1 0.00 0.00 0.00 76 1011.6
20260506021904 11 37 8.0 19.3 0.00 0.00 0.00 76 1011.6
20260506020904 11 47 6.4 12.9 0.00 0.00 0.00 75 1011.6
20260506020404 11 61 4.8 9.7 0.00 0.00 0.00 75 1011.6
20260506015903 11 44 3.2 8.0 0.00 0.00 0.00 75 1011.6
20260506015404 11 37 6.4 12.9 0.00 0.00 0.00 75 1011.6
20260506014403 11 43 4.8 11.3 0.00 0.00 0.00 74 1011.6
20260506013903 11 45 6.4 11.3 0.00 0.00 0.00 74 1011.6
20260506013403 11 39 8.0 16.1 0.00 0.00 0.00 74 1011.6
20260506012904 11 50 9.7 19.3 0.00 0.00 0.00 74 1011.6
20260506012404 11 59 6.4 20.9 0.00 0.00 0.00 74 1011.6
20260506011903 11 38 3.2 9.7 0.00 0.00 0.00 73 1011.6
20260506011404 12 46 4.8 9.7 0.00 0.00 0.00 73 1011.6
20260506010903 12 59 8.0 16.1 0.00 0.00 0.00 73 1011.6
20260506010403 12 49 4.8 16.1 0.00 0.00 0.00 72 1011.6
20260506005903 12 53 8.0 16.1 0.00 0.00 0.00 72 1011.6
20260506005403 12 41 8.0 19.3 0.00 0.00 0.00 72 1011.6
20260506004903 12 54 8.0 12.9 0.00 0.00 0.00 72 1011.5
20260506004404 12 42 6.4 19.3 0.00 0.00 0.00 71 1011.7
20260506003903 12 60 9.7 20.9 0.00 0.00 0.00 70 1011.7
20260506003404 12 59 11.3 19.3 0.00 0.00 0.00 70 1011.7
20260506002404 12 56 6.4 19.3 0.00 0.00 0.00 70 1011.7
20260506001904 12 75 11.3 20.9 0.00 0.00 0.00 71 1011.7
20260506001404 12 53 6.4 19.3 0.00 0.00 0.00 72 1011.6
20260506000904 12 53 4.8 11.3 0.00 0.00 0.00 73 1011.6
20260506000404 12 52 6.4 11.3 0.00 0.00 0.00 73 1011.6
20260505235904 12 62 3.2 8.0 0.00 0.00 0.00 73 1011.5
20260505235404 12 62 6.4 19.3 0.00 0.00 0.00 72 1011.5
20260505234904 12 52 8.0 20.9 0.00 0.00 0.00 73 1011.5
20260505233904 12 39 4.8 12.9 0.00 0.00 0.00 74 1011.5
20260505232404 12 52 4.8 11.3 0.00 0.00 0.00 76 1011.4
20260505231904 12 37 4.8 11.3 0.00 0.00 0.00 76 1011.3
20260505230903 12 37 6.4 9.7 0.00 0.00 0.00 75 1011.3
20260505230404 12 34 4.8 11.3 0.00 0.00 0.00 75 1011.3
20260505225904 12 31 4.8 11.3 0.00 0.00 0.00 74 1011.5
20260505225404 12 25 4.8 9.7 0.00 0.00 0.00 74 1011.5
20260505224904 12 22 4.8 12.9 0.00 0.00 0.00 74 1011.5
20260505224404 12 7 8.0 11.3 0.00 0.00 0.00 74 1011.5
20260505223404 12 0 4.8 8.0 0.00 0.00 0.00 74 1011.4
20260505222404 13 339 4.8 11.3 0.00 0.00 0.00 74 1011.4
20260505221904 13 346 4.8 11.3 0.00 0.00 0.00 73 1011.4
20260505221404 13 9 8.0 9.7 0.00 0.00 0.00 73 1011.4
20260505220904 13 350 6.4 9.7 0.00 0.00 0.00 73 1011.4
20260505220404 13 346 8.0 11.3 0.00 0.00 0.00 73 1011.4
20260505215903 13 0 6.4 12.9 0.00 0.00 0.00 73 1011.4
20260505214904 13 342 4.8 11.3 0.00 0.00 0.00 73 1011.4
20260505214404 13 355 4.8 8.0 0.00 0.00 0.00 73 1011.4
20260505213904 13 0 4.8 11.3 0.00 0.00 0.00 73 1011.4
20260505213403 13 16 4.8 11.3 0.00 0.00 0.00 73 1011.4
20260505212904 13 357 8.0 11.3 0.00 0.00 0.00 73 1011.4
20260505212403 13 8 4.8 11.3 0.00 0.00 0.00 73 1011.4
20260505211905 13 323 3.2 9.7 0.00 0.00 0.00 73 1011.4
20260505211404 13 340 6.4 11.3 0.00 0.00 0.00 74 1011.4
20260505210904 13 344 6.4 12.9 0.00 0.00 0.00 74 1011.4
20260505205904 13 336 4.8 8.0 0.00 0.00 0.00 74 1011.3
20260505205403 13 336 3.2 8.0 0.00 0.00 0.00 74 1011.3
20260505204904 13 333 4.8 9.7 0.00 0.00 0.00 74 1011.3
20260505204404 13 330 4.8 9.7 0.00 0.00 0.00 74 1011.3
20260505203904 13 328 4.8 9.7 0.00 0.00 0.00 74 1011.3
20260505203404 13 329 3.2 9.7 0.00 0.00 0.00 74 1011.3
20260505202404 13 352 4.8 12.9 0.00 0.00 0.00 74 1011.2
20260505201904 13 335 4.8 9.7 0.00 0.00 0.00 74 1011.2
20260505201403 13 336 4.8 9.7 0.00 0.00 0.00 73 1011.3
20260505200904 13 337 4.8 9.7 0.00 0.00 0.00 73 1011.0
20260505200403 13 339 8.0 11.3 0.00 0.00 0.00 73 1011.0
20260505195404 14 344 4.8 11.3 0.00 0.00 0.00 72 1011.0
20260505194903 14 329 4.8 9.7 0.00 0.00 0.00 72 1011.0
20260505194404 14 343 4.8 12.9 0.00 0.00 0.00 72 1011.0
20260505193903 14 341 9.7 12.9 0.00 0.00 0.00 72 1010.8
20260505193403 14 329 6.4 9.7 0.00 0.00 0.00 72 1010.8
20260505192904 14 333 4.8 9.7 0.00 0.00 0.00 72 1010.8
20260505192403 14 329 4.8 8.0 0.00 0.00 0.00 72 1010.8
20260505191904 14 337 4.8 8.0 0.00 0.00 0.00 72 1010.8
20260505191404 14 17 3.2 8.0 0.00 0.00 0.00 72 1010.8
20260505190903 14 339 3.2 4.8 0.00 0.00 0.00 71 1010.7
20260505190403 14 7 3.2 8.0 0.00 0.00 0.00 71 1010.7
20260505185903 14 356 3.2 8.0 0.00 0.00 0.00 70 1010.7
20260505185403 15 353 4.8 9.7 0.00 0.00 0.00 70 1010.7
20260505184903 15 358 3.2 8.0 0.00 0.00 0.00 70 1010.7
20260505184404 15 2 4.8 8.0 0.00 0.00 0.00 69 1010.5
20260505183904 15 343 4.8 8.0 0.00 0.00 0.00 69 1010.5
20260505183403 15 339 3.2 8.0 0.00 0.00 0.00 69 1010.5
20260505182404 15 339 4.8 8.0 0.00 0.00 0.00 69 1010.6
20260505181904 15 341 4.8 8.0 0.00 0.00 0.00 69 1010.6
20260505181403 15 16 3.2 8.0 0.00 0.00 0.00 68 1010.6
20260505175904 15 8 3.2 9.7 0.00 0.00 0.00 68 1010.6
20260505175404 15 7 4.8 8.0 0.00 0.00 0.00 68 1010.6
20260505174904 15 341 4.8 9.7 0.00 0.00 0.00 68 1010.6
20260505174404 15 346 4.8 9.7 0.00 0.00 0.00 67 1010.8
20260505173903 15 337 3.2 8.0 0.00 0.00 0.00 67 1010.8
20260505173403 15 8 1.6 8.0 0.00 0.00 0.00 67 1010.8
20260505172904 15 344 3.2 9.7 0.00 0.00 0.00 67 1010.8
20260505172404 15 349 4.8 8.0 0.00 0.00 0.00 66 1010.8
20260505171903 15 356 4.8 11.3 0.00 0.00 0.00 65 1010.8
20260505171404 15 0 4.8 12.9 0.00 0.00 0.00 65 1010.8
20260505170403 15 15 4.8 9.7 0.00 0.00 0.00 66 1010.8
20260505165904 15 4 8.0 12.9 0.00 0.00 0.00 66 1010.8
20260505165403 15 15 8.0 11.3 0.00 0.00 0.00 65 1010.8
20260505164903 15 0 4.8 11.3 0.00 0.00 0.00 65 1010.8
20260505164404 15 3 4.8 9.7 0.00 0.00 0.00 65 1010.7
20260505163904 16 71 6.4 14.5 0.00 0.00 0.00 66 1010.7
20260505163404 16 20 3.2 9.7 0.00 0.00 0.00 65 1010.7
20260505162903 16 36 3.2 11.3 0.00 0.00 0.00 64 1010.7
20260505162404 16 32 4.8 9.7 0.00 0.00 0.00 64 1010.7
20260505160903 16 357 4.8 9.7 0.00 0.00 0.00 65 1010.8
20260505160403 16 14 3.2 11.3 0.00 0.00 0.00 66 1010.8